RH
64 26 33 29 24 30 31 23 16 15 64 61 48 56 63 68 60 82 72 81 86 84 90 88 93 92 92 92 93 92 91 87 86 88 90 90 90 90 88 88 86 82 76 75 74 74 76 77 77
28 20 26 28 26 28 24 19 30 39 57 52 54 58 66 82 68 86 86 84 83 88 88 90 93 93 93 93 92 90 87 87 88 88 87 87 86 88 89 90 88 84 76 75 75 75 76 76 80
25 22 25 24 25 27 24 31 57 53 48 52 59 60 62 76 75 71 78 83 86 91 91 92 94 94 94 94 94 93 92 92 92 90 86 86 85 85 87 90 88 83 76 74 74 74 75 80 82
21 22 24 23 21 19 19 19 55 54 51 54 57 71 66 61 64 70 75 82 90 92 95 95 95 95 94 93 93 93 94 94 94 92 88 84 84 85 87 90 88 80 77 74 74 75 79 83 84
23 25 29 26 18 16 14 13 31 52 55 58 61 82 82 70 63 68 80 84 91 93 95 93 96 95 94 92 92 92 92 92 92 92 92 89 84 83 86 88 87 84 79 77 77 79 82 83 84
24 25 30 26 16 13 15 12 22 56 65 69 75 78 83 67 70 78 78 88 91 92 96 92 94 96 96 94 93 93 92 91 90 90 90 89 89 89 88 88 87 86 85 84 82 82 82 84 86
27 28 26 24 18 15 13 18 23 58 63 67 64 87 79 77 74 77 80 88 94 96 91 92 92 96 97 96 94 92 91 90 90 90 89 88 89 89 89 89 89 89 88 88 88 88 88 89 89
25 29 35 26 18 17 11 20 43 50 62 57 61 85 78 80 78 80 86 92 97 98 96 93 90 92 92 91 94 92 91 90 88 87 87 88 88 88 90 90 90 89 88 87 86 86 87 90 90
22 33 36 28 24 18 12 22 40 52 62 56 60 64 64 79 82 90 96 97 98 96 98 99 99 98 99 98 93 92 89 88 87 86 86 88 93 90 93 92 89 87 86 84 84 85 88 93 90
24 31 30 22 18 19 12 39 55 61 59 74 73 67 79 79 84 92 95 98 98 98 99 98 98 98 97 79 97 94 88 92 89 86 92 95 95 94 87 89 86 84 84 83 82 87 93 91 95
25 27 22 19 17 17 14 31 67 66 75 73 87 82 82 82 84 85 90 92 96 96 96 98 97 97 94 93 95 96 96 94 92 88 89 90 90 93 95 94 88 85 75 79 75 85 87 87 84
22 19 18 18 16 16 16 56 91 84 84 84 98 87 78 83 82 86 91 98 97 97 98 96 96 94 93 83 82 89 86 91 87 84 86 93 93 89 88 80 76 72 68 73 93 90 82 72 68
19 17 16 14 14 32 71 89 90 93 89 86 91 90 91 86 82 87 94 96 96 97 96 96 94 93 86 80 82 78 89 85 82 79 78 84 80 77 74 70 67 63 65 70 89 86 76 65 66
14 13 14 13 13 20 81 88 83 90 82 85 84 89 89 87 89 94 96 97 96 97 96 96 95 95 92 87 85 81 86 79 76 73 70 71 79 77 72 68 66 61 61 65 69 83 74 67 63
11 14 14 12 13 22 70 84 90 87 78 82 88 85 83 85 88 92 94 96 96 97 96 96 96 94 90 85 83 86 76 72 70 69 68 69 71 71 67 68 70 68 73 75 84 88 84 78 61
17 16 15 11 15 28 41 89 83 84 75 89 87 84 84 85 88 93 96 96 97 97 97 92 80 88 86 86 85 77 78 75 71 68 66 65 63 65 70 73 74 72 76 84 87 84 82 83 74
22 24 21 14 15 20 45 96 78 88 75 90 80 82 89 97 96 96 96 96 97 97 95 94 89 88 85 72 72 73 73 70 67 67 64 64 62 64 72 76 78 74 73 73 72 80 82 86 83
25 23 23 19 16 23 80 87 89 86 83 86 85 87 93 96 95 97 98 97 97 96 94 94 93 87 78 72 65 64 63 64 64 62 63 65 67 65 69 71 74 73 71 69 62 62 68 67 69
19 21 19 21 16 28 74 79 91 90 87 94 89 84 91 94 92 96 94 94 93 89 84 83 80 80 65 65 72 73 68 64 66 64 63 65 64 64 65 69 67 70 72 70 63 62 60 68 72
21 23 23 18 18 48 92 81 87 92 80 87 84 82 88 91 95 96 96 94 93 90 81 79 75 76 76 77 74 69 61 65 64 62 63 64 64 64 64 70 70 69 67 72 70 66 68 70 73
21 24 24 19 22 38 87 95 95 87 83 78 77 70 77 85 91 91 98 94 94 94 89 80 78 76 74 70 65 66 57 61 59 60 66 68 67 68 70 72 75 75 72 73 76 70 67 70 69
22 18 17 22 24 34 51 75 87 90 89 82 80 73 72 73 76 82 95 97 86 94 91 84 78 80 69 65 63 58 57 58 64 68 66 65 64 67 68 72 77 79 80 76 73 73 73 68 65
19 17 21 23 26 28 39 49 66 90 91 86 80 74 71 69 70 71 84 93 93 89 86 86 82 81 72 67 63 67 74 72 75 74 72 71 75 75 74 76 80 83 81 82 80 79 78 80 74
18 22 24 26 30 57 26 40 71 90 74 82 77 74 70 69 69 74 77 85 92 86 88 86 84 82 73 70 72 73 72 73 77 75 76 77 78 79 77 76 82 83 83 81 83 82 78 78 76
16 22 40 42 62 45 30 45 44 66 59 66 76 74 71 68 69 76 81 90 89 89 88 84 79 79 74 76 74 72 71 70 72 75 82 85 84 83 80 77 80 82 82 82 82 80 78 81 82
18 21 55 43 54 37 38 61 43 56 49 47 60 66 67 69 68 74 73 79 84 85 85 79 75 73 73 77 74 70 72 70 77 77 83 83 82 84 81 82 82 82 81 82 84 88 86 84 85
25 24 26 42 48 47 39 35 33 45 51 52 58 62 68 66 66 67 66 70 78 84 84 77 71 69 73 73 72 71 76 76 77 77 81 84 84 76 81 80 81 81 80 80 80 84 84 84 84
19 20 36 58 60 55 54 33 38 48 54 54 56 60 63 61 61 59 60 65 75 79 80 74 69 70 74 70 68 68 76 76 78 80 82 83 82 81 79 78 79 78 78 79 81 84 81 83 86
24 27 38 44 61 58 67 54 38 29 38 48 49 53 58 58 57 57 58 60 71 78 76 75 71 72 75 68 70 74 75 74 78 80 83 81 84 81 79 77 78 78 77 75 80 80 77 81 82
21 28 38 73 52 72 80 66 42 37 37 38 40 47 54 53 55 56 57 59 72 80 75 75 72 72 70 68 67 70 74 76 79 80 80 84 82 80 79 76 75 74 73 74 74 73 76 79 81
Wind_Speed
4 4 1 5 4 5 5 6 4 6 4 3 10 10 10 6 1 4 8 15 16 16 12 13 16 17 18 17 17 15 16 16 15 15 14 14 13 13 14 12 11 11 12 12 11 11 10 10 10
3 2 5 2 3 1 6 5 5 7 13 16 17 11 7 4 6 14 10 16 15 14 12 12 16 17 17 17 16 15 16 16 15 15 14 14 14 13 12 12 11 11 11 11 11 10 9 9 10
2 1 4 3 4 6 5 5 11 16 14 4 9 4 5 4 14 10 14 17 14 12 12 13 15 16 16 16 16 14 14 14 13 13 14 14 13 12 11 9 10 10 10 10 9 8 9 10 12
1 4 4 2 13 7 6 3 3 7 6 8 15 9 5 4 6 11 18 18 16 13 11 14 15 15 15 14 15 14 13 12 12 12 13 13 13 12 11 9 8 9 9 8 9 9 9 11 12
3 3 1 4 14 8 6 7 7 4 5 9 6 6 5 5 22 21 17 15 19 14 12 12 14 15 15 14 14 13 12 11 11 11 11 11 12 12 10 8 8 8 8 8 8 8 9 9 11
1 3 2 8 16 11 3 12 12 4 4 11 12 10 5 17 22 17 16 14 14 16 12 11 14 14 14 12 12 12 11 10 10 10 10 10 10 9 9 9 7 7 6 6 7 7 8 9 11
6 4 7 5 10 10 6 7 17 10 12 7 15 7 13 16 19 17 16 12 13 12 13 11 11 11 12 11 10 10 10 10 9 9 9 9 8 8 8 7 7 6 5 4 4 4 6 8 11
5 4 3 5 9 13 9 5 10 17 4 12 17 10 16 17 18 17 15 12 12 11 11 11 10 10 9 7 8 8 9 9 8 8 8 8 7 6 6 6 5 5 4 4 4 6 8 11 15
5 3 5 9 5 11 10 5 4 5 16 3 4 18 22 22 21 18 15 12 10 9 9 7 7 6 6 5 4 5 8 9 8 5 6 6 3 4 4 4 4 3 2 3 4 7 11 17 17
6 6 9 9 12 2 8 4 3 6 10 6 11 21 21 21 21 19 16 13 11 12 10 9 8 6 5 5 6 4 5 4 4 5 6 5 4 4 4 3 3 2 3 1 5 10 15 12 6
7 9 10 10 13 4 9 5 4 10 3 4 26 26 20 20 16 17 14 13 11 8 6 4 6 7 6 5 3 3 3 3 3 6 5 5 4 3 2 2 2 3 6 3 6 7 6 8 5
4 9 11 11 14 3 4 6 7 5 6 22 14 14 14 16 14 15 13 9 10 8 7 6 6 7 8 6 5 4 4 3 4 4 5 4 3 3 4 3 4 4 4 6 6 5 9 8 9
5 7 6 11 16 6 11 6 9 14 21 20 27 21 5 6 11 10 12 11 12 11 9 6 8 8 8 9 6 5 4 4 4 5 5 4 4 6 4 4 4 4 4 4 5 5 7 8 8
6 16 11 10 13 6 15 6 5 8 14 25 21 13 20 7 12 12 16 13 12 10 8 7 7 6 6 7 7 6 4 5 5 4 4 5 4 4 5 4 4 5 4 3 4 6 7 7 8
17 5 7 16 8 8 18 6 6 16 18 14 12 15 20 16 13 15 15 15 13 8 6 7 7 6 5 7 7 6 5 4 5 4 6 5 5 5 5 4 4 3 2 5 6 6 5 5 7
7 7 14 16 7 8 14 5 11 9 17 16 11 12 13 17 14 11 12 13 9 8 7 6 7 7 8 6 4 5 4 4 4 4 4 5 6 6 6 5 5 4 4 4 4 4 4 4 6
5 5 6 18 11 6 6 7 17 9 15 14 17 17 14 13 10 9 9 11 10 9 8 8 7 8 8 8 7 7 7 5 4 4 4 5 6 6 6 4 4 5 5 6 5 5 4 4 3
5 7 6 9 7 7 7 6 19 16 16 18 17 16 17 16 13 10 8 7 8 7 7 7 6 7 8 7 7 6 5 5 4 5 3 6 4 5 5 4 5 5 5 5 5 5 4 4 4
6 4 9 5 8 8 11 18 20 17 14 12 15 17 16 16 14 13 9 7 9 8 9 7 9 7 8 6 5 4 3 3 4 4 5 5 5 5 5 3 6 4 5 5 4 3 5 5 2
7 6 6 6 5 7 12 21 22 19 20 22 23 17 17 16 16 13 12 7 7 8 8 7 7 7 4 4 4 4 4 3 4 2 4 7 5 4 5 6 5 4 5 6 5 4 3 4 3
12 8 5 8 3 6 12 10 15 12 2 5 10 15 18 21 20 18 15 12 9 7 8 8 7 7 6 7 7 5 6 4 2 3 3 5 5 4 7 7 6 5 4 5 5 5 5 4 4
14 9 9 6 5 5 8 6 8 15 15 16 15 17 19 18 16 14 15 13 13 8 7 7 6 7 6 8 9 11 5 6 2 2 2 5 4 4 7 7 6 5 4 7 6 5 3 5 5
10 7 8 5 4 2 4 6 9 16 16 17 20 20 17 17 17 16 15 15 10 12 10 8 7 7 6 7 8 6 6 4 3 3 6 4 4 5 6 6 6 6 5 7 6 6 7 4 3
2 1 4 2 5 3 13 10 7 15 18 24 19 17 18 18 17 15 13 15 13 13 12 10 10 7 7 7 8 9 11 8 6 4 4 3 2 3 6 6 6 7 6 6 5 6 8 7 6
8 6 2 2 3 11 8 9 11 20 21 25 28 24 24 22 20 19 19 17 16 16 15 12 13 10 8 8 8 9 10 9 8 6 5 5 3 3 4 5 6 5 6 6 6 7 8 6 6
11 10 7 7 6 7 4 7 6 22 24 25 25 29 26 22 20 23 21 19 19 17 16 15 15 13 11 9 9 8 10 7 5 5 4 4 4 4 3 5 6 6 6 7 6 4 5 6 6
5 10 8 5 1 5 4 3 3 11 18 19 21 19 22 22 22 23 22 20 19 19 20 18 16 13 12 11 9 9 8 9 7 7 5 4 5 4 5 6 6 6 7 6 6 5 6 6 5
11 7 4 2 7 5 4 6 5 10 16 17 19 21 24 22 21 21 21 21 19 19 17 18 18 16 14 13 11 9 9 8 8 7 7 7 6 5 6 6 6 7 6 6 7 5 6 7 4
4 6 3 5 5 7 3 7 7 8 14 19 22 24 25 25 23 22 21 20 18 18 18 18 17 16 14 13 11 10 9 9 8 8 7 7 6 7 6 6 6 6 6 6 6 7 7 7 6
7 7 6 7 5 2 5 7 4 6 10 16 23 22 24 27 25 23 22 20 18 19 18 17 17 17 16 14 12 12 10 8 9 8 8 7 7 6 7 6 6 6 6 6 7 6 6 7 7
Wind_Direction
290 310 42 34 32 65 281 273 254 282 51 1 105 114 122 30 147 174 129 131 138 137 130 119 118 115 111 109 104 103 100 98 93 91 89 88 83 86 98 92 86 83 86 83 79 70 58 51 55
3 325 36 50 118 26 281 254 178 194 125 102 81 76 51 88 70 119 113 131 139 134 126 122 119 116 114 112 109 108 107 104 101 97 94 92 90 82 86 90 88 88 86 83 76 67 50 30 29
285 80 91 154 203 183 229 339 120 124 158 142 115 87 92 88 121 136 132 136 135 124 124 120 115 115 116 115 112 111 109 110 108 105 103 101 98 94 87 81 94 93 86 80 75 63 44 26 20
337 18 16 153 251 221 211 92 199 127 101 67 116 85 73 83 134 123 140 134 126 123 121 115 115 114 115 114 113 112 108 105 106 107 108 108 105 100 93 81 77 89 93 79 65 48 36 30 23
28 65 203 237 254 257 216 245 228 154 105 131 147 130 83 73 116 128 133 133 131 127 123 120 118 118 118 117 114 111 110 112 112 112 111 110 109 108 100 90 80 74 67 65 58 45 36 34 33
356 114 115 234 247 254 198 255 205 131 104 113 100 105 105 127 126 132 131 136 129 129 124 123 121 119 118 116 117 117 118 119 118 115 113 114 112 108 108 104 94 83 74 67 58 49 42 42 46
167 120 212 244 262 299 209 240 215 150 148 129 136 108 132 137 134 133 129 122 122 116 120 120 119 111 102 109 118 123 126 120 111 110 109 110 113 117 115 112 113 107 94 72 58 51 56 64 72
146 116 202 241 249 270 252 245 147 146 131 114 141 158 160 141 128 123 121 122 117 117 122 125 125 125 127 132 136 135 118 106 110 115 121 129 128 128 126 119 121 112 98 85 66 59 60 76 86
142 114 219 232 224 247 298 325 124 89 142 160 165 135 138 131 121 118 119 117 116 123 127 123 127 134 137 132 141 100 106 104 92 112 129 142 133 132 157 144 139 124 119 104 72 54 78 95 88
149 172 225 212 232 329 293 60 52 112 145 57 100 121 126 132 132 133 139 139 142 143 145 150 151 151 132 125 100 98 97 64 65 82 73 84 101 127 136 147 140 70 336 326 108 83 90 94 92
189 202 219 258 249 234 278 332 62 133 83 62 147 141 136 132 133 135 130 140 143 136 144 135 140 133 140 112 106 78 64 72 45 67 65 82 81 73 78 75 31 18 60 68 101 91 88 90 93
204 205 217 263 263 161 282 69 64 18 79 100 60 80 116 135 137 134 135 115 122 109 115 110 109 117 111 111 98 104 98 63 66 40 55 83 71 62 59 66 47 36 32 61 62 94 101 85 86
206 243 221 239 260 135 61 75 111 112 120 114 125 148 134 151 136 131 125 127 124 118 115 102 104 110 118 115 115 109 95 76 75 62 42 41 79 86 81 63 62 53 47 55 89 95 100 101 93
208 228 249 251 257 176 126 150 89 155 139 136 153 148 138 194 139 131 134 138 130 127 130 132 119 123 120 121 129 124 114 115 85 64 52 59 76 93 86 66 64 51 50 75 107 121 116 114 109
231 250 253 246 245 181 127 60 160 154 168 144 148 151 140 140 141 148 146 141 139 138 127 117 118 118 110 126 129 124 118 100 90 89 61 69 80 80 87 77 64 48 34 81 114 109 104 109 104
201 190 240 254 199 203 166 156 166 178 152 147 153 147 131 131 138 144 141 135 130 128 131 127 122 117 106 86 63 93 87 87 87 71 71 72 78 77 73 81 56 24 43 60 75 106 104 104 115
230 213 198 252 186 152 137 132 183 200 155 150 149 141 134 124 123 136 137 139 145 134 144 140 134 123 113 91 82 69 57 51 51 57 62 84 80 79 86 80 84 62 55 59 64 45 62 81 86
199 175 197 213 217 160 128 135 173 191 173 162 154 143 144 144 151 140 130 130 125 133 138 124 117 121 101 94 89 75 69 51 29 45 352 65 76 87 87 81 74 81 82 71 76 106 82 107 121
191 196 205 215 210 119 152 146 175 181 166 158 162 152 156 152 144 138 131 128 131 140 129 135 136 139 126 122 120 92 78 74 54 42 6 46 43 80 74 70 69 50 83 84 83 95 76 38 78
237 241 228 239 185 93 142 168 176 178 183 174 164 163 155 141 153 147 148 154 149 143 129 131 135 142 125 101 92 112 133 55 90 85 50 42 40 49 86 64 50 52 83 82 76 60 97 76 351
227 217 220 210 129 100 126 163 181 195 120 166 189 159 160 161 163 167 166 158 150 141 147 155 160 143 138 123 110 92 82 76 94 47 33 36 29 43 69 66 62 32 45 77 73 70 61 109 26
234 177 214 233 126 198 191 192 201 167 185 185 180 183 174 173 176 169 163 166 167 166 152 162 165 142 147 134 129 141 142 146 134 107 104 82 32 64 81 80 80 86 53 59 63 52 90 112 114
224 172 201 206 171 86 207 160 188 168 183 188 193 191 187 187 179 180 173 172 168 164 173 169 162 157 163 141 140 138 118 104 113 94 88 66 69 71 70 75 79 70 71 63 64 63 56 33 76
213 235 191 192 127 198 236 214 215 181 180 198 194 190 190 191 191 176 173 165 168 173 177 170 166 175 173 150 141 137 135 138 124 126 118 129 90 63 73 84 79 75 78 79 74 73 69 64 69
201 128 225 205 91 225 198 221 216 191 191 189 186 189 194 194 188 175 175 172 171 180 177 173 170 177 175 151 142 144 142 140 150 156 153 136 116 82 92 92 92 89 87 84 79 74 71 62 74
201 188 153 178 181 225 191 212 229 189 186 195 188 187 189 191 185 179 176 175 177 177 175 174 173 171 161 155 149 143 144 152 154 156 147 140 121 130 137 109 99 100 94 82 85 84 79 76 77
206 191 185 115 218 107 207 278 23 187 184 193 190 179 185 187 181 179 177 178 177 176 178 171 173 169 159 156 147 154 156 154 155 152 142 144 141 136 131 117 109 101 95 104 98 88 86 82 80
153 160 127 358 157 188 281 203 214 168 185 183 181 183 183 186 180 180 176 178 179 179 172 169 172 168 158 155 158 163 160 155 149 147 154 155 150 128 130 119 114 110 109 104 98 94 92 93 82
114 136 107 124 136 165 128 261 220 202 183 185 189 186 177 182 180 179 179 179 177 172 172 168 170 160 159 162 157 153 163 162 151 152 157 158 140 142 136 134 128 127 121 113 103 100 102 100 95
154 149 124 121 248 122 139 267 258 256 204 184 190 182 177 178 179 178 176 172 167 168 173 172 168 161 163 162 157 162 162 153 151 153 156 154 149 150 148 141 132 130 126 122 116 114 117 109 104